Regional Weather Roundup
Issued by NWS

Home | Current Version | Previous Version | Graphics & Text | Print | Product List | Glossary On
Versions: 1 2 3 4 5 6 7 8 9 10 11 12 13 14 15 16 17 18 19 20 21 22 23 24 25 26 27 28 29 30 31 32 33 34 35 36 37 38 39 40 41 42 43 44 45 46 47 48 49 50
000
ASUS43 KDMX 230007
RWRIA

WEATHER ROUNDUP FOR IOWA
NATIONAL WEATHER SERVICE DES MOINES IA
700 PM CDT FRI AUG 22 2014

NOTE: "FAIR" INDICATES FEW OR NO CLOUDS BELOW 12,000 FEET WITH NO
SIGNIFICANT WEATHER AND/OR OBSTRUCTIONS TO VISIBILITY.

* - THESE STATIONS ARE NOT NWS STATIONS...THUS NOT UNDER NWS
QUALITY CONTROL.  THEY ALSO DO NOT REPORT WEATHER SUCH
AS PRECIPITATION OR FOG.

IAZ001>003-012>014-020>022-031>034-043>046-230100-
   NORTHWEST IOWA

CITY           SKY/WX    TMP DP  RH WIND       PRES   REMARKS
CARROLL *      PTSUNNY   77  77 100 CALM      29.94S
CHEROKEE *     MOSUNNY   82  75  80 NE5       29.95R HX  88
DENISON *      MOSUNNY   73  73 100 NE5       29.91F
LE MARS *      SUNNY     82  73  74 NE8G16    29.95R HX  88
ORANGE CITY *  MOSUNNY   82  70  65 E7        29.96S HX  86
SHELDON *      SUNNY     81  73  78 NE7       29.95F HX  85
SIOUX CITY     MOSUNNY   86  75  69 E12       29.92S HX  95
6HR MIN TEMP:  86; 6HR MAX TEMP:  91;

SPENCER        SUNNY     83  72  69 NE5       29.96S HX  88
6HR MIN TEMP:  77; 6HR MAX TEMP:  84;

STORM LAKE *   MOSUNNY   82  79  89 NE7       29.96S HX  93
$$

IAZ055>058-069>071-079>083-090>094-230100-
   SOUTHWEST IOWA

CITY           SKY/WX    TMP DP  RH WIND       PRES   REMARKS
ATLANTIC *     SUNNY     81  75  83 CALM      29.92S HX  86
AUDUBON *      LGT RAIN  75  72  88 CALM      29.95F
CLARINDA *     SUNNY     81  73  78 NE3       29.94R HX  85
COUNCIL BLFS * SUNNY     79  77  94 E5        29.91R HX  83
CRESTON *      SUNNY     79  75  89 S8        29.93F HX  82
HARLAN  *      MOSUNNY   77  77 100 E5        29.95F
LAMONI         PTSUNNY   81  75  82 SE3       29.93S HX  87
6HR MIN TEMP:  81; 6HR MAX TEMP:  85;

RED OAK *      SUNNY     82  73  74 E6        29.92S HX  88
SHENANDOAH *   SUNNY     81  73  78 E6        29.92R HX  85
$$

IAZ047>049-059>061-072>074-084-230100-
   CENTRAL IOWA

CITY           SKY/WX    TMP DP  RH WIND       PRES   REMARKS
AMES           CLOUDY    82  77  84 CALM      29.93R HX  90
6HR MIN TEMP:  82; 6HR MAX TEMP:  88;

ANKENY *       PTSUNNY   82  79  89 CALM      29.91S HX  93
CHARITON *     SUNNY     84  77  79 SW5       29.92F HX  94
DES MOINES     CLOUDY    83  75  77 SW7       29.91S HX  90
6HR MIN TEMP:  82; 6HR MAX TEMP:  90; 6HR PCP:  0.07;

GRINNELL*      CLOUDY    81  75  83 E5        29.94S HX  86
KNOXVILLE *    PTSUNNY   84  79  84 S3        29.90F HX  96
MARSHALLTOWN   PTSUNNY   83  76  79 SW7       29.93R HX  91
6HR MIN TEMP:  83; 6HR MAX TEMP:  89;

PELLA *        PTSUNNY   84  79  83 CALM      29.93S HX  96
PERRY *        PTSUNNY   79  77  94 W3        29.94R HX  83
$$

IAZ004>006-015-016-023>025-035-036-230100-
   NORTH CENTRAL IOWA

CITY           SKY/WX    TMP DP  RH WIND       PRES   REMARKS
ALGONA *       SUNNY     82  75  78 N6        29.96S HX  89
CLARION *      SUNNY     82  77  83 CALM      29.95R HX  91
ESTHERVILLE    SUNNY     80  71  74 N8        29.97R HX  84
6HR MIN TEMP:  75; 6HR MAX TEMP:  84;

FORT DODGE *   CLOUDY    81  75  83 CALM      29.96R HX  86
MASON CITY     PTSUNNY   82  73  74 N3        29.96S HX  87
6HR MIN TEMP:  82; 6HR MAX TEMP:  88;

FOREST CITY *  SUNNY     82  73  74 CALM      29.96S HX  88
IOWA FALLS *     N/A     80  72  77 NE3       29.95S HX  84
$$

IAZ007>011-017>019-026>030-037>042-050>054-066-230100-
   NORTHEAST IOWA

CITY           SKY/WX    TMP DP  RH WIND       PRES   REMARKS
CEDAR RAPIDS   PTCLDY    81  76  84 SW6       29.93R HX  87
6HR MIN TEMP:  81; 6HR MAX TEMP:  87;

CHARLES CITY * MOSUNNY   82  77  83 CALM      29.95R HX  91
CLINTON *      CLOUDY    82  75  78 S5        29.96S HX  89
DECORAH *      CLEAR     82  75  78 CALM      29.93S HX  89
DUBUQUE        MOCLDY    81  78  91 CALM      29.94S HX  89
6HR MIN TEMP:  78; 6HR MAX TEMP:  87;

MONTICELLO *   CLEAR     84  77  79 SW5       29.92S HX  94
OELWEIN *      CLEAR     81  77  89 CALM      29.94S HX  88
WATERLOO       MOSUNNY   81  68  64 CALM      29.92R HX  84
6HR MIN TEMP:  76; 6HR MAX TEMP:  91; 6HR PCP: TRACE;

$$

IAZ064-065-067-068-078-230100-
   EAST CENTRAL IOWA

CITY           SKY/WX    TMP DP  RH WIND       PRES   REMARKS
DAVENPORT      CLOUDY    83  74  74 CALM      29.94S HX  89
6HR MIN TEMP:  80; 6HR MAX TEMP:  86;

IOWA CITY      MOCLDY    84  76  76 CALM      29.93S HX  93
6HR MIN TEMP:  83; 6HR MAX TEMP:  87;

MT. PLEASANT * MOCLDY    85  75  73 CALM      29.93S HX  94
MUSCATINE *    CLEAR     86  77  74 S3        29.92S HX  97
QUAD CITIES    MOCLDY    84  75  74 S3        29.93R HX  92
6HR MIN TEMP:  79; 6HR MAX TEMP:  89;

$$

IAZ062-063-075>077-085>089-095>099-230100-
   SOUTHEAST IOWA

CITY           SKY/WX    TMP DP  RH WIND       PRES   REMARKS
BURLINGTON     PTCLDY    84  78  82 SW3       29.93S HX  95
6HR MIN TEMP:  82; 6HR MAX TEMP:  87;

FAIRFIELD *    MOCLDY    84  77  79 CALM      29.94R HX  94
FORT MADISON * PTCLDY    84  79  84 CALM      29.94S HX  96
KEOKUK *       CLEAR     84  79  84 SW5       29.92S HX  96
OSKALOOSA *      N/A     83  79  87 S3        29.93S HX  93
CENTERVILLE *  SUNNY     82  79  89 CALM      29.94F HX  93
OTTUMWA        PTCLDY    83  78  85 S3        29.92S HX  93
6HR MIN TEMP:  83; 6HR MAX TEMP:  86;

WASHINGTON *   PTCLDY    84  77  79 SW7       29.94R HX  94
$$

ABBREVIATIONS USED IN REMARKS
   TC - TEMPERATURES IN CELSIUS
  WCI - WIND CHILL INDEX
   HX - HEAT INDEX
  VSB - VISIBILITY
$$



USA.gov is the U.S. government's official web portal to all federal, state and local government web resources and services.